Terminal Aerodrome Forecast
Issued by NWS

Home | Current Version | Previous Version | Graphics & Text | Print | Product List | Glossary On
Versions: 1 2 3 4 5 6 7 8 9 10 11 12 13 14 15 16 17
000
FTUS41 KCLE 251100
TAFFDY
TAF
KFDY 251122Z 2512/2612 24015G25KT P6SM OVC025
     FM251900 26012KT P6SM OVC035
     FM252300 26006KT P6SM SCT035=

USA.gov is the U.S. government's official web portal to all federal, state and local government web resources and services.